Flag for U.S.A. Weather past 2 weeks in Columbia, South Carolina, U.S.A.

Now
62 °F

Clear.


Feels Like: 62 °F
Forecast: 58 / 73 °F
Wind: 5 mph from Southwest

Location: Columbia Owens Downtown Airport

Current Time: Apr 21, 2015 at 4:22:50 AM

Latest Report: Apr 21, 2015 at 3:53 AM


Visibility: 10 mi

Pressure: 29.82 "Hg

Humidity: 65%

Dew point: 50 °F

Location of ColumbiaLocation

Historic Weather in Columbia — Graph

°F

Columbia temperature yesterday

Maximum temperature yesterday: 78 °F (at 11:53 AM)
Minimum temperature yesterday: 64 °F (at 12:53 AM)
Average temperature yesterday: 70 °F

Past Weeks' High & Low Weather Summary

 TemperatureHumidityPressure
High90 °F (Apr 9, 4:53 PM)96% (Apr 14, 5:53 AM)30.33 "Hg (Apr 14, 5:53 AM)
Low49 °F (Apr 16, 5:53 AM)30% (Apr 11, 3:53 PM)29.70 "Hg (Apr 20, 7:53 PM)
Average69 °F75%30.09 "Hg
* Reported Apr 6 2:53 AM — Apr 21 2:53 AM, Columbia, Weather by CustomWeather, © 2015

Note: Actual official high and low records may vary slightly from our data, if they occured in-between our weather recording intervals... More about our weather records

Advertising

Columbia weather history for previous 24 hours

 ConditionsComfort  
Time TempWeatherWind HumidityBarometerVisibility
2:53 AM
Tue, Apr 21
64 °FPassing clouds.8 mph63%29.81 "Hg10 mi
1:53 AM65 °FClear.8 mph66%29.80 "Hg10 mi
12:53 AM68 °FClear.9 mph65%29.80 "Hg10 mi
11:53 PM
Mon, Apr 20
68 °FPassing clouds.9 mph73%29.77 "Hg10 mi
10:53 PM68 °FClear.7 mph78%29.75 "Hg10 mi
9:53 PM68 °FClear.5 mph82%29.74 "Hg10 mi
8:53 PM69 °FSunny.7 mph81%29.70 "Hg10 mi
7:53 PM71 °FSunny.8 mph76%29.70 "Hg10 mi
6:53 PM73 °FPassing clouds.8 mph71%29.70 "Hg10 mi
5:53 PM72 °FMore clouds than sun.8 mph76%29.71 "Hg10 mi
4:53 PM72 °FMostly cloudy.9 mph73%29.72 "Hg10 mi
3:53 PM73 °FScattered clouds.13 mph71%29.72 "Hg10 mi
2:53 PM74 °FSunny.8 mph71%29.75 "Hg10 mi
1:53 PM75 °FPassing clouds.9 mph66%29.78 "Hg10 mi
12:53 PM77 °FBroken clouds.12 mph64%29.80 "Hg10 mi
11:53 AM78 °FScattered clouds.12 mph62%29.79 "Hg10 mi
10:53 AM74 °FSunny.10 mph69%29.80 "Hg10 mi
9:53 AM72 °FPassing clouds.9 mph76%29.80 "Hg10 mi
8:53 AM68 °FBroken clouds.3 mph84%29.79 "Hg10 mi
7:53 AM67 °FOvercast.3 mph90%29.79 "Hg10 mi
6:53 AM66 °FOvercast.5 mph90%29.79 "Hg10 mi
5:53 AM66 °FOvercast.5 mph90%29.78 "Hg10 mi
4:53 AM66 °FOvercast.6 mph90%29.77 "Hg10 mi
Weather by CustomWeather, © 2015

See weather overviewHow to use our weather pages